Regional Weather Roundup
Issued by NWS Sioux Falls, SD

Home | Current Version | Previous Version | Text Only | Print | Product List | Glossary On
Versions: 1 2 3 4 5 6 7 8 9 10 11 12 13 14 15 16 17 18 19 20 21 22 23 24 25 26 27 28 29 30 31 32 33 34 35 36 37 38 39 40 41 42 43 44 45 46 47 48 49 50
000
ASUS43 KFSD 251410
RWRFSD

WEATHER ROUNDUP FOR SE SOUTH DAKOTA/SW MINNESOTA/NW IOWA
NATIONAL WEATHER SERVICE SIOUX FALLS SD
900 AM CDT SAT OCT 25 2014

NOTE: "FAIR" INDICATES FEW OR NO CLOUDS BELOW 12,000 FEET WITH NO
SIGNIFICANT WEATHER AND OR OBSTRUCTIONS TO VISIBILITY.


SDZ038>040-050-052>070-251500-
SOUTHEAST SOUTH DAKOTA

CITY           SKY/WX    TMP DP  RH WIND       PRES   REMARKS
CHAMBERLAIN    CLEAR     40  35  81 W3        30.15R
HURON          CLEAR     44  37  76 NW5       30.14R
MADISON        FAIR      41  39  93 N6        30.13R
MITCHELL       CLEAR     44  39  82 W3        30.16R
SIOUX FALLS    MOSUNNY   47  42  83 W3        30.13R
WINNER         FAIR      42  34  73 W6        30.16R
YANKTON        SUNNY     45  39  81 NW7       30.14R
$$

MNZ071-072-080-081-089-090-097-098-251500-
SOUTHWEST MINNESOTA

CITY           SKY/WX    TMP DP  RH WIND       PRES   REMARKS
FAIRMONT       SUNNY     54   9  16 NW9       30.09R
JACKSON        SUNNY     50  36  57 NW6       30.10R
LUVERNE        SUNNY     45  37  76 CALM      30.12R
MARSHALL       MOSUNNY   48  34  57 W9        30.11R
MONTEVIDEO     MOSUNNY   54  39  58 N5        30.11R
PIPESTONE      MOSUNNY   48  37  66 N3        30.12R
REDWOOD FALLS  SUNNY     51  38  60 NW7       30.09R
TRACY          MOSUNNY   53  35  50 NW5       30.11R
WINDOM         SUNNY     52  36  54 NW5       30.10R
WORTHINGTON    SUNNY     48  36  61 NW8       30.12R
$$

IAZ001>003-012>014-020>022-031-032-NEZ013-014-SDZ071-251500-
NORTHWEST IOWA

CITY           SKY/WX    TMP DP  RH WIND       PRES   REMARKS
CHEROKEE       SUNNY     43  43 100 CALM      30.12R
DENISON        SUNNY     45  45 100 CALM      30.10R
ESTHERVILLE    SUNNY     50  37  61 NW7       30.10R
LE MARS        SUNNY     43  43 100 CALM      30.13R
ORANGE CITY    SUNNY     46  41  81 NW5       30.12R
SHELDON        SUNNY     45  43  93 NW3       30.11R
SIOUX CITY     SUNNY     48  44  86 NW5       30.13R
SPENCER        SUNNY     47  41  80 W3        30.11R
STORM LAKE     SUNNY     54  39  58 N7        30.12R
$$

ABBREVIATIONS USED IN REMARKS
   TC - TEMPERATURE IN CELSIUS
  WCI - WIND CHILL INDEX
   HX - HEAT INDEX
  VSB - VISIBILITY




USA.gov is the U.S. government's official web portal to all federal, state and local government web resources and services.